Regional Weather Roundup
Issued by NWS Cleveland, OH

Home | Current Version | Previous Version | Text Only | Print | Product List | Glossary Off
Versions: 1 2 3 4 5 6 7 8 9 10 11 12 13 14 15 16 17 18 19 20 21 22 23 24 25 26 27 28 29 30 31 32 33 34 35 36 37 38 39 40 41 42 43 44 45 46 47 48 49 50

000
ASUS41 KCLE 202310
RWRCLE
OHIO REGIONAL WEATHER ROUNDUP
NATIONAL WEATHER SERVICE CLEVELAND, OH
700 PM EDT SUN APR 20 2014

NOTE: "FAIR" INDICATES FEW OR NO CLOUDS BELOW 12,000 FEET WITH NO
SIGNIFICANT WEATHER AND/OR OBSTRUCTIONS TO VISIBILITY.

OHZ001>008-015>018-024>027-034-035-043-044-210000-
   NORTHWEST OHIO

CITY           SKY/WX    TMP DP  RH WIND       PRES   REMARKS
DEFIANCE       MOSUNNY   73  28  18 S7        30.13F
FINDLAY        MOSUNNY   72  34  24 SW7       30.13F
TOLEDO EXPRESS SUNNY     71  28  20 SW6       30.13F
TOLEDO EXEC    SUNNY     65  38  36 E8        30.15F
LIMA           MOSUNNY   73  31  21 S7        30.14F
$$

OHZ009>014-019>023-028>033-038-089-210000-
   NORTHEAST OHIO

CITY           SKY/WX    TMP DP  RH WIND       PRES   REMARKS
CLE-HOPKINS    MOSUNNY   70  31  23 N6        30.18F
CLE-LAKEFRONT  SUNNY     54  41  61 NE5       30.14F
CUY CO. ARPT   PTSUNNY   72  28  20 S10       30.17F
LORAIN-ELYRIA  SUNNY     74  33  22 S9        30.16F
ASHTABULA      SUNNY     71  24  17 S9        30.17F
AKRON-CANTON   PTSUNNY   71  23  16 S6        30.17F
WOOSTER        SUNNY     70  32  24 SE8       30.17F
MANSFIELD      SUNNY     70  37  29 S5        30.17F
YOUNGSTOWN     PTSUNNY   71  18  13 S7        30.18F
$$

OHZ042-051>053-060>062-070>072-077>081-210000-
  SOUTHWEST OHIO

CITY           SKY/WX    TMP DP  RH WIND       PRES   REMARKS
CINC-COVINGTON PTSUNNY   72  40  31 CALM      30.13F
CINC-LUNKEN    MOSUNNY   72  40  31 CALM      30.13S
HAMILTON       MOSUNNY   76  35  22 CALM      30.13F
DAYTON         PTSUNNY   71  37  28 SW3       30.15F
WRIGHT-PAT AFB MOSUNNY   73  37  27 S3        30.13F
DAYTON GENERAL SUNNY     73  38  27 CALM      30.13F
WILMINGTON     SUNNY     71  41  33 SW7       30.14F
$$

OHZ036-037-039>041-045>050-054>059-063>069-073>076-082>088-210000-
  CENTRAL AND SOUTHEAST OHIO

CITY           SKY/WX    TMP DP  RH WIND       PRES   REMARKS
COLUMBUS       PTSUNNY   76  33  21 VRB5      30.14F
OSU AIRPORT    MOSUNNY   73  37  27 CALM      30.14F
BOLTON FIELD   SUNNY     72  37  28 S3        30.15F
RICKENBACK AFB SUNNY     75  28  17 SW3       30.13F
NEWARK         MOSUNNY   74  28  18 S7        30.14F
MARION         SUNNY     70  38  31 S8        30.16F
LANCASTER      SUNNY     74  31  20 SE8       30.14F
ZANESVILLE     MOSUNNY   73  22  14 CALM      30.15F
NEW PHILLY     MOSUNNY   73  23  15 E6        30.16F
$$



USA.gov is the U.S. government's official web portal to all federal, state and local government web resources and services.